Temp
20 18 17 16 15 14 13 13 13 13 13 12 12 13 13 13 14 14 15 15 16 16 16 15 15 16 15 15 15 16 16 16
20 18 16 15 14 13 13 13 13 12 12 12 12 13 12 13 14 14 15 14 15 15 16 15 14 15 16 15 15 15 15 15
21 18 17 16 14 14 13 12 13 12 12 13 13 12 13 13 13 14 14 13 14 14 14 14 14 15 15 14 14 13 14 13
21 19 17 17 14 14 14 12 12 12 13 13 13 12 12 12 12 13 13 13 14 13 15 16 16 14 15 14 13 14 15 13
22 20 18 17 16 14 14 13 13 12 12 12 13 13 12 13 12 12 13 13 13 14 14 15 15 15 14 14 14 15 15 15
23 21 20 18 17 14 13 13 14 12 12 13 13 14 13 12 12 13 13 13 12 14 14 14 15 16 15 15 16 15 15 16
24 22 20 19 17 15 13 14 14 14 13 12 12 12 13 12 11 11 11 12 12 13 13 14 14 16 15 16 16 16 16 15
25 23 21 19 18 16 15 16 16 14 14 14 13 13 13 13 12 12 11 11 12 13 13 14 15 15 16 16 15 16 15 15
25 24 22 20 18 16 15 16 16 16 15 15 14 15 14 14 13 14 13 13 13 13 14 15 15 15 16 15 14 15 15 14
25 25 22 20 19 17 15 17 17 16 15 15 15 15 15 15 15 15 14 14 14 13 13 13 14 14 15 14 15 15 15 15
26 25 23 21 19 18 16 17 17 16 15 15 15 15 15 15 15 15 15 15 15 15 14 14 14 15 15 15 15 15 15 15
26 25 23 21 20 18 17 17 17 16 15 16 15 15 15 14 15 15 15 15 15 15 14 15 15 16 16 15 15 15 16 15
27 25 23 22 20 19 18 17 17 16 15 15 15 15 15 15 14 14 15 15 15 15 15 15 15 15 15 15 15 15 15 15
27 25 24 23 21 20 19 18 17 17 16 15 15 15 15 14 14 14 15 15 15 15 15 15 15 15 15 15 15 15 15 13
27 26 25 24 22 21 20 19 18 17 16 16 15 15 15 14 15 14 14 15 15 15 15 14 14 14 14 14 13 13 13 13
27 27 27 26 24 22 21 20 18 17 17 16 16 15 15 15 14 14 14 14 14 15 15 14 14 13 12 12 12 12 12 12
27 27 26 26 25 23 22 20 19 18 17 17 17 16 15 15 15 15 14 14 14 15 15 15 14 13 13 13 13 11 12 12
25 26 26 26 25 23 23 21 20 18 18 17 17 17 16 16 15 15 15 15 15 14 14 15 14 14 13 12 13 12 11 11
23 24 25 25 24 23 23 23 21 19 18 18 18 17 17 16 16 15 15 15 15 14 14 14 14 12 12 13 13 11 9 8
Height
751 756 758 762 764 766 767 770 772 776 781 786 790 795 801 805 811 815 818 822 827 834 839 842 845 850 854 857 859 862 863 865
746 752 756 759 762 764 765 768 772 775 778 784 789 794 799 803 810 814 818 823 829 833 837 840 844 849 853 854 858 861 862 865
741 748 752 755 759 762 763 766 770 774 778 782 787 792 795 801 806 810 815 822 828 831 834 837 842 847 851 851 855 858 861 862
734 741 746 750 755 758 760 763 768 772 777 781 785 789 794 798 802 810 813 820 825 828 831 835 839 843 844 849 853 855 856 858
726 733 740 744 748 755 758 761 765 769 773 777 782 786 790 795 800 805 811 815 821 824 829 835 837 839 843 846 848 850 851 853
717 725 732 739 744 749 754 757 760 765 768 773 778 784 788 792 797 801 805 811 818 820 828 832 836 836 839 844 844 845 847 849
710 720 728 734 740 745 749 751 755 759 764 769 775 778 784 788 794 798 804 808 813 816 823 828 831 831 835 838 838 840 841 845
702 711 719 726 732 739 744 746 749 754 758 764 769 773 778 782 784 791 798 801 806 810 816 820 821 823 829 830 835 836 837 841
694 701 710 717 725 730 736 740 744 748 752 756 762 768 772 775 779 784 788 792 797 803 807 810 814 819 822 827 831 827 832 833
687 693 702 709 715 722 727 732 737 741 746 750 754 758 764 768 772 777 782 787 792 797 801 805 808 813 815 820 819 821 825 826
681 686 695 701 709 717 723 726 730 736 740 743 747 750 753 759 765 769 773 779 784 787 792 797 802 806 809 811 812 814 817 817
679 681 688 696 701 708 715 719 723 726 731 735 739 742 746 750 752 758 764 771 774 778 783 789 792 796 799 802 803 806 808 808
674 678 683 689 693 698 703 710 714 719 723 727 731 736 740 743 745 747 753 759 767 771 777 781 784 786 789 792 795 796 797 798
671 677 678 682 686 691 694 700 705 710 716 720 724 728 730 731 736 742 746 750 755 761 767 770 773 776 778 780 782 785 788 791
667 669 673 676 679 683 686 690 695 701 706 711 715 716 719 723 729 735 739 742 746 750 753 757 761 764 768 771 772 773 777 777
664 664 664 668 673 676 679 682 686 691 695 699 700 707 712 718 722 727 732 736 739 742 745 748 751 754 756 759 762 764 765 766
659 659 660 661 663 667 672 674 677 682 685 686 692 697 703 706 712 717 723 727 731 735 738 740 743 745 746 749 752 755 755 755
660 657 656 656 656 657 661 664 671 673 675 680 683 688 692 697 703 707 711 716 722 725 729 733 735 737 739 742 746 747 747 747
661 656 653 653 652 651 651 655 659 664 668 671 674 677 683 689 694 698 702 707 712 715 719 722 726 727 730 734 737 738 739 741
Wind_Speed
13 12 10 10 11 10 13 13 22 27 27 26 29 30 31 27 29 35 36 28 34 25 25 23 24 21 20 19 17 14 14 13
14 14 13 12 12 13 13 17 23 29 28 27 27 27 31 32 36 29 35 24 28 26 25 23 22 22 23 19 16 14 12 13
16 17 16 16 15 16 15 19 25 27 27 26 24 31 25 32 37 35 32 23 25 24 27 28 25 19 19 17 17 14 11 15
17 18 19 18 18 18 18 18 22 21 21 21 16 22 22 23 28 38 40 32 28 26 34 34 31 21 17 19 19 17 13 14
17 18 22 22 21 19 19 21 22 20 22 23 21 24 19 21 27 29 37 29 30 31 31 31 32 29 19 21 24 17 13 14
20 20 24 23 22 23 22 21 23 21 22 22 24 24 24 20 23 31 33 29 26 31 32 31 34 31 32 23 23 17 16 16
17 21 23 23 23 23 24 24 25 24 25 25 26 25 24 23 26 26 30 35 38 31 31 34 35 27 27 26 20 22 22 18
17 20 21 26 28 28 27 27 28 29 29 28 28 28 28 27 32 32 31 31 39 40 39 39 31 29 32 26 29 29 21 24
17 21 23 28 30 32 31 30 30 32 31 31 30 30 30 29 31 34 33 34 38 42 45 44 41 37 39 36 32 19 21 21
16 19 25 28 31 33 34 33 32 33 33 32 33 33 33 31 32 32 34 35 35 37 38 37 40 39 33 33 25 24 24 24
12 16 22 29 29 29 30 31 33 32 33 34 34 36 37 35 34 35 36 35 35 35 35 37 36 35 32 30 29 29 30 29
8 12 20 26 28 29 30 31 32 33 34 34 34 35 36 37 38 38 40 37 37 38 36 35 37 36 34 31 32 32 32 31
3 11 16 22 27 29 32 32 33 33 33 34 35 33 34 36 39 40 39 40 38 39 38 37 37 38 36 35 34 33 32 32
2 8 13 16 24 28 30 32 34 32 31 33 33 34 36 38 38 37 36 37 37 36 37 38 39 39 39 39 36 33 31 29
11 6 11 15 21 25 28 30 32 33 33 34 35 37 39 37 36 36 37 37 37 37 38 38 37 36 34 32 34 35 38 40
11 10 9 10 17 22 26 28 31 33 34 35 38 36 34 33 33 34 35 35 36 36 36 37 36 35 35 35 32 33 38 38
14 11 11 11 14 19 23 27 31 32 34 36 33 32 33 34 33 32 33 34 35 34 34 35 34 33 36 38 33 32 35 35
18 16 12 12 17 19 23 27 26 31 33 31 31 30 31 32 31 32 33 34 32 32 32 32 32 32 33 36 33 34 34 34
19 15 13 18 17 18 21 21 26 28 29 29 29 30 30 28 28 30 29 28 30 29 29 30 27 29 33 30 30 34 29 26
Wind_Direction
195 206 197 191 189 185 190 173 181 184 183 177 180 181 182 189 183 185 179 177 183 179 179 176 167 176 179 178 175 181 172 166
188 198 196 193 192 186 177 181 177 172 172 175 178 180 193 196 195 190 191 182 189 187 186 177 173 181 185 175 177 179 170 176
190 194 199 197 194 192 178 181 176 176 177 181 182 194 182 188 199 197 202 193 194 194 184 182 184 182 187 174 181 182 182 183
191 192 199 196 197 195 189 178 186 184 182 179 165 166 176 173 184 196 213 212 194 203 198 198 196 195 188 194 196 193 194 196
195 192 194 198 195 195 192 186 186 187 182 179 183 185 174 192 190 192 202 209 197 202 202 204 205 207 204 210 210 209 215 215
196 195 194 196 191 189 192 190 188 186 186 189 192 197 196 189 190 202 215 210 199 204 208 213 216 216 224 226 221 221 225 235
199 195 192 193 191 188 192 192 193 190 191 192 187 188 186 185 180 183 195 209 202 194 206 214 222 218 227 223 228 229 234 246
194 192 191 193 190 190 194 193 193 193 192 193 197 198 195 193 184 190 187 193 200 203 206 216 218 224 233 232 237 232 232 238
197 198 195 194 195 191 193 196 194 194 195 195 196 201 198 196 193 195 194 195 199 205 214 219 222 227 236 237 231 226 230 235
202 196 198 200 196 197 195 195 197 195 195 196 197 197 200 201 196 199 199 202 205 208 211 212 218 221 223 224 229 230 235 241
202 199 200 200 201 200 200 201 199 198 198 197 199 200 200 202 204 203 203 205 206 204 207 213 215 220 225 232 237 240 242 244
207 204 201 203 196 199 204 205 202 201 202 202 202 203 204 201 202 205 208 209 209 210 210 213 218 224 230 235 238 241 244 247
235 198 194 198 201 198 202 205 207 207 204 203 207 207 207 208 210 210 209 213 217 217 219 223 226 228 227 230 235 238 240 240
289 202 196 200 202 204 204 205 210 209 207 209 209 211 210 212 215 213 214 215 218 221 224 229 232 234 235 235 235 236 236 237
292 238 217 210 207 207 207 208 208 208 209 210 212 213 215 217 217 218 218 218 219 219 222 226 231 233 232 232 226 223 238 252
292 273 243 217 213 212 212 211 207 207 208 209 215 217 217 219 220 221 222 222 222 222 222 224 226 225 222 227 230 234 239 246
298 284 257 235 222 218 215 213 209 204 208 213 214 214 216 218 219 219 221 222 223 224 226 225 226 226 225 222 225 229 240 239
301 302 292 270 244 226 217 214 208 206 209 213 211 211 213 216 216 216 218 221 221 222 226 226 229 230 231 231 238 239 236 238
301 299 299 292 272 247 231 219 210 208 213 213 209 205 209 210 213 215 216 217 221 220 223 225 227 224 230 241 241 228 230 223